Location: Newark
(35.6799°N, 139.7636°E)
Time: 21:04:43
(UTC+00:00)

Transit 2A - Pass Details

Date: 07 December 2019
Orbit: 601 x 958 km, 66.7° (Epoch: 21 January)

Event Time Altitude Azimuth Distance (km) Brightness Sun altitude
Rises 08:55:28 0° 310° (NW) 2,907 9.5 -17.5°
Reaches altitude 10° 08:58:35 10° 286° (WNW) 2,041 9.1 -18.1°
Maximum altitude 09:01:06 15° 253° (WSW) 1,790 9.0 -18.6°
Drops below altitude 10° 09:03:42 10° 219° (SW) 2,131 9.1 -19.1°
Sets 09:07:05 0° 196° (SSW) 3,121 9.6 -19.7°
